Weather observations for the past three days for
Malmstrom Air Force Base
Imperial (Metric)
Date Time (mdt) Wind (mph) Vis. (mi.) Weather Sky Cond. Temperature (ºF) Relative Humidity Wind Chill (°F) Heat Index (°F) Pressure Precipitation (in)
Air Dwpt 6 hour altimeter (in) sea level (mb) 1 hr 3 hr 6 hr
Max. Min.
15 16:55 NW 13 10.00 Fair CLR 93.6 33.3 12% 89 29.91 1009.2
15 15:55 W 12 10.00 Fair CLR 92.1 32.2 12% 88 29.93 1009.9
15 14:55 W 17 G 21 10.00 Fair CLR 91.6 31.8 12% 87 29.94 1009.9
15 13:55 NW 14 G 20 10.00 Fair CLR 90 36.1 15% 86 29.95 1010.2
15 12:55 W 13 G 22 10.00 Fair CLR 88.5 38.1 17% 85 29.97 1010.9
15 11:55 W 12 10.00 Fair CLR 85.8 43.7 86 58.8 23% 83 29.98 1011.3
15 10:55 SW 10 10.00 Fair CLR 81 52.9 38% 80 30.01 1012.3
15 09:55 SW 9 10.00 Fair CLR 74.8 56.5 53% 30.03 1013.3
15 08:55 SW 10 10.00 Fair CLR 67.6 53.8 61% 30.05 1014.0
15 07:55 SW 3 10.00 Fair CLR 62.8 53.2 71% 30.06 1014.4
15 06:55 SW 5 10.00 Fair CLR 61.2 54 77% 30.05 1014.0
15 05:55 SW 10 10.00 Fair CLR 58.6 53.4 71.6 58.6 83% 30.05 1014.4
15 04:55 SW 13 10.00 Fair CLR 60.6 54.1 79% 30.04 1014.1
15 03:55 Calm 10.00 Fair CLR 63.7 53.2 69% 30.03 1013.3
15 02:55 Calm 10.00 Fair CLR 66 54 65% 30.03 1013.0
15 01:55 N 10 10.00 Fair CLR 67.5 53.6 61% 30.02 1012.6
15 00:55 N 13 10.00 Fair CLR 68.9 54.9 61% 29.99 1011.2
14 23:55 N 10 10.00 Fair CLR 71.4 52.9 93.6 70.9 52% 29.97 1010.9
14 22:55 N 5 10.00 Fair CLR 77.7 51.4 40% 79 29.95 1009.9
14 21:55 NE 8 10.00 Fair CLR 80.4 48.6 33% 80 29.94 1009.5
14 20:55 NW 9 10.00 Fair CLR 87.6 37.4 17% 84 29.91 1008.1
14 19:55 W 14 10.00 Fair CLR 89.8 30.4 12% 86 29.9 1008.5
14 18:55 W 10 10.00 A Few Clouds FEW240 93.6 28.8 10% 89 29.9 1008.8
14 17:55 N 5 10.00 Partly Cloudy SCT240 92.3 36.1 92.8 86.4 14% 88 29.89 1008.9
14 16:55 Calm 10.00 Fair CLR 90.7 36.7 15% 87 29.91 1009.6
14 15:55 Calm 10.00 Fair CLR 90.1 36.1 15% 86 29.93 1009.9
14 14:55 W 6 10.00 Fair CLR 90.9 36.9 15% 87 29.95 1010.6
14 13:55 W 7 10.00 Fair CLR 90.1 39.4 17% 86 29.96 1010.6
14 12:55 NW 12 10.00 Fair CLR 89.4 38.8 17% 86 29.97 1010.9
14 11:55 Calm 10.00 Fair CLR 86.2 44.1 86.2 58.6 23% 83 29.99 1011.2
14 10:55 NW 6 10.00 Fair CLR 83.8 45.3 26% 82 30 1011.9
14 09:55 W 6 10.00 Fair CLR 79.9 45.7 30% 79 30.02 1013.0
14 08:55 W 8 10.00 Fair CLR 75.2 40.8 29% 77 30.03 1013.0
14 07:55 SW 9 10.00 Fair CLR 68.5 43.2 40% 30.02 1013.0
14 06:55 Calm 10.00 Fair CLR 61.2 46.2 58% 30 1012.7
14 05:55 Calm 10.00 Fair CLR 58.6 45.7 74.8 56.8 62% 29.98 1012.0
14 04:55 SW 3 10.00 Fair CLR 58.8 45 60% 29.98 1012.0
14 03:55 W 3 10.00 Fair CLR 64.2 44.6 49% 29.97 1011.3
14 02:55 S 5 10.00 Fair CLR 64.4 44.2 48% 29.97 1010.9
14 01:55 Calm 10.00 Fair CLR 66.4 45 46% 29.97 1011.3
14 00:55 S 6 10.00 Fair CLR 67.6 46.8 47% 29.98 1011.6
13 23:55 Calm 10.00 Fair CLR 75 45.5 92.5 71.2 35% 77 29.97 1010.9
13 22:55 Calm 10.00 Fair CLR 73.6 46.4 38% 29.97 1011.3
13 21:55 S 9 10.00 Fair CLR 72.9 49.6 44% 29.97 1012.0
13 20:55 SE 6 10.00 Fair CLR 81.3 50.2 34% 80 29.95 1010.9
13 19:55 E 5 10.00 Fair CLR 87.6 48.4 26% 85 29.95 1010.6
13 18:55 NE 6 10.00 Fair CLR 91.2 41.7 18% 87 29.95 1010.6
13 17:55 N 9 10.00 Fair CLR 92.1 41 93.2 83.1 17% 88 29.95 1010.9
13 16:55 NW 10 10.00 Fair CLR 91.9 39.4 16% 88 29.97 1011.6
13 15:55 Calm 10.00 Fair CLR 91 38.7 16% 87 29.99 1012.0
13 14:55 NW 12 10.00 Fair CLR 91.6 40.6 17% 88 30.01 1012.6
13 13:55 NW 8 G 17 10.00 Fair CLR 89.4 38.8 17% 86 30.02 1013.0
13 12:55 Calm 10.00 Fair CLR 86 50 29% 84 30.03 1014.1
13 11:55 Calm 10.00 Fair CLR 83.3 53.6 83.3 58.1 36% 82 30.04 1014.4
13 10:55 Calm 10.00 Fair CLR 78.8 55 44% 79 30.05 1014.8
13 09:55 Calm 10.00 Fair CLR 74.5 56.7 54% 30.05 1014.8
13 08:55 Calm 10.00 Fair CLR 71.4 56.3 59% 30.07 1015.4
13 07:55 Calm 10.00 Fair CLR 64.4 55.2 72% 30.07 1015.4
13 06:55 SW 5 10.00 Fair CLR 60.8 53.6 77% 30.06 1015.1
13 05:55 Calm 10.00 Fair CLR 58.8 53.1 66 58.8 81% 30.04 1014.8
13 04:55 SW 6 10.00 Fair CLR 60.8 51.6 72% 30.03 1014.1
13 03:55 Calm 10.00 Fair CLR 61.2 52.3 73% 30.02 1013.7
13 02:55 SW 3 10.00 Fair CLR 62.1 52.5 71% 30.03 1014.1
13 01:55 Calm 10.00 Fair CLR 63.3 53.4 70% 30.04 1014.4
13 00:55 Calm 10.00 Fair CLR 62.6 54.1 74% 30.04 1014.8
12 23:55 SE 5 10.00 Fair CLR 63.9 55.4 85.5 63.9 74% 30.05 1015.1
12 22:55 SE 7 10.00 Fair CLR 68.4 54.9 62% 30.06 1015.5
12 21:55 E 5 10.00 Fair CLR 70.7 56.5 61% 30.05 1014.8
12 20:55 E 5 10.00 Fair CLR 76.3 56.3 50% 78 30.03 1014.1
12 19:55 E 10 10.00 Fair CLR 82.2 54.7 39% 82 30.03 1013.3
12 18:55 NE 7 10.00 Fair CLR 84.6 49.6 30% 82 30.02 1013.4
12 17:55 NE 5 G 17 10.00 Fair CLR 85.1 52.7 85.6 77.9 33% 83 30.03 1014.1
Date Time (mdt) Wind (mph) Vis. (mi.) Weather Sky Cond. Air Dwpt Max. Min. Relative Humidity Wind Chill (°F) Heat Index (°F) altimeter (in) sea level (mb) 1 hr 3 hr 6 hr
6 hour
Temperature (ºF) Pressure Precipitation (in)